Wind_Speed
16 19 19 20 20 21 23 23 23 24 25 25 25 25 26 27 27 27 27 28 28 28 28 29 28 28 28 28 29 29 29 29 29 28 28 28 27 28 28 29 29 29 29
16 18 19 21 21 23 25 25 24 25 25 25 25 26 26 25 26 26 27 28 28 29 29 28 28 28 29 29 30 29 29 29 29 29 29 28 27 27 28 29 29 28 28
17 17 19 21 23 24 24 24 25 25 25 25 26 26 26 25 25 26 26 26 26 27 28 27 28 29 30 29 29 28 28 28 28 28 28 28 27 27 27 28 29 29 29
19 19 20 21 22 23 23 23 25 25 25 25 25 25 25 26 26 26 26 25 26 27 27 27 28 29 28 28 28 28 27 26 26 26 27 27 26 25 25 26 27 27 28
19 20 21 23 23 24 24 25 25 25 25 25 25 26 26 27 27 26 25 26 26 26 27 27 27 27 26 27 27 27 26 25 25 25 25 24 24 24 24 24 25 25 26
19 21 23 24 24 25 26 26 26 25 25 25 25 26 26 27 26 26 26 26 26 26 26 25 25 25 25 25 25 24 24 23 22 23 23 23 22 22 22 22 23 24 24
21 21 23 25 25 25 26 26 26 25 25 25 26 26 26 26 26 26 26 25 25 25 25 25 25 24 25 24 23 23 22 21 20 20 20 20 20 20 21 22 22 23 23
22 23 24 25 25 25 25 25 25 24 24 24 25 25 25 26 26 26 26 25 25 25 24 24 24 24 23 23 22 21 20 19 19 18 18 17 18 18 19 19 19 20 21
23 23 24 24 24 24 23 23 23 24 23 23 23 24 25 25 25 25 24 24 24 23 23 23 23 22 22 22 21 20 20 19 18 17 16 16 17 17 17 17 18 18 19
23 23 24 23 22 22 21 22 23 22 22 22 22 23 24 25 24 24 24 23 22 22 21 20 20 20 21 20 20 19 18 17 16 16 16 16 16 16 16 16 17 17 17
23 22 22 22 21 20 21 21 20 20 20 21 22 23 24 23 23 23 22 21 20 20 20 19 19 19 19 19 18 18 16 16 15 15 15 14 14 14 14 14 14 15 16
21 20 20 20 19 19 19 19 19 19 19 20 21 22 22 22 21 21 20 19 19 19 19 18 17 17 17 17 17 16 15 14 14 13 13 12 12 12 13 13 14 14 14
21 20 19 19 19 18 18 18 18 18 19 19 20 20 20 19 19 18 18 17 17 17 17 17 17 17 16 16 15 14 13 13 13 13 12 12 12 12 12 12 13 13 13
20 20 18 17 17 17 17 17 18 18 18 18 18 18 18 17 17 17 16 16 15 15 15 15 16 16 14 14 14 13 12 12 13 12 12 11 11 11 11 11 11 12 12
19 18 17 17 18 18 17 17 17 17 17 17 16 16 16 16 16 16 15 15 14 15 15 15 15 14 13 13 12 12 12 12 12 11 11 11 10 11 11 10 10 10 10
18 17 17 17 17 17 16 16 16 16 15 15 15 14 14 15 15 14 14 14 13 13 14 14 14 13 13 13 12 12 12 12 11 11 10 10 10 10 10 10 10 11 11
18 18 18 18 16 16 15 15 15 15 15 14 14 14 13 14 14 13 13 13 12 12 12 12 12 12 12 12 12 11 11 11 11 11 10 11 10 10 10 10 10 11 11
17 17 17 16 16 15 14 14 14 14 14 14 13 13 13 13 12 12 12 12 12 12 12 12 11 11 12 12 12 11 10 10 10 10 10 10 10 10 9 10 11 11 11
16 16 15 14 14 13 12 13 13 13 13 13 12 12 12 12 12 12 12 12 12 12 12 11 11 12 12 11 11 11 10 9 9 9 9 9 10 10 10 10 10 10 10
14 13 13 13 13 12 12 12 12 12 12 12 12 12 11 11 12 12 12 12 11 11 12 11 11 11 12 12 11 10 9 8 8 8 9 9 8 8 8 8 9 9 9
12 11 12 11 11 11 11 11 11 11 11 11 11 11 11 11 11 12 11 11 11 11 12 12 12 12 12 12 12 11 9 8 8 8 8 8 8 7 7 7 8 8 8
11 10 10 10 10 10 10 10 10 10 10 10 10 10 10 10 11 11 11 11 11 11 11 11 11 12 12 11 11 11 10 9 8 8 8 8 8 8 8 8 8 8 8
11 10 9 9 9 9 9 10 10 9 9 9 9 9 9 9 10 10 10 10 10 10 10 10 11 11 11 11 11 11 11 10 9 8 8 8 8 8 9 9 9 9 10
9 10 9 8 8 8 9 9 9 8 7 7 7 8 8 8 9 10 10 10 10 11 11 10 10 11 11 11 11 11 11 10 10 9 9 9 9 9 9 10 10 10 11
7 7 8 8 8 8 8 7 7 6 6 6 7 7 7 8 9 9 10 10 10 11 10 11 11 11 11 12 12 12 11 11 11 11 10 10 10 10 10 10 10 11 11
6 5 5 6 6 6 5 5 5 5 5 5 6 7 7 8 9 9 10 11 11 11 11 11 12 12 12 12 12 12 12 12 12 12 11 12 11 11 11 11 11 12 11
Wind_Direction
290 291 292 293 297 294 296 297 297 297 297 297 297 296 295 296 297 296 295 294 294 293 293 292 290 291 291 290 288 287 285 283 279 276 277 277 275 270 268 265 264 263 261
288 292 292 292 294 295 295 295 293 294 296 296 296 296 295 295 296 296 296 296 295 294 294 294 291 291 291 291 290 289 286 284 280 275 275 275 273 271 269 266 263 262 260
289 292 294 293 293 295 295 294 293 294 294 296 297 297 296 296 297 297 298 297 296 294 293 293 293 292 292 291 291 291 288 284 281 277 275 274 272 269 268 266 263 262 260
292 291 294 293 294 296 295 294 295 294 293 295 297 297 296 297 298 299 300 298 296 294 295 295 295 294 293 293 293 292 289 286 283 280 277 273 270 267 266 266 263 261 261
296 299 300 300 298 298 297 296 295 293 293 293 295 296 297 298 299 301 301 298 296 295 295 296 296 297 295 294 294 294 292 290 285 283 280 275 272 268 265 264 263 262 261
304 303 304 303 301 301 299 297 295 292 292 292 294 294 296 299 299 301 302 300 299 298 296 297 297 298 297 296 295 295 295 291 287 285 280 276 274 270 267 265 263 264 263
304 304 306 306 304 301 300 298 295 294 293 294 295 295 296 299 300 301 302 301 301 302 300 299 298 297 295 294 295 294 295 292 290 287 283 278 275 272 269 268 266 264 263
307 305 306 306 305 303 302 301 298 296 295 296 296 296 298 300 302 302 301 300 300 301 301 301 300 299 297 294 293 294 294 292 290 290 286 281 277 275 272 271 266 263 261
308 307 307 306 305 305 304 302 299 296 296 296 296 298 300 302 302 301 300 300 301 301 302 301 300 300 297 295 294 294 294 291 291 292 290 285 281 278 274 271 269 266 265
312 309 309 308 307 305 304 303 302 300 298 300 301 302 304 304 303 302 299 299 301 302 303 303 302 301 300 297 296 296 294 290 291 293 292 289 285 279 277 274 273 271 269
313 312 313 312 310 309 308 305 304 303 303 304 304 304 305 305 306 305 302 301 301 302 304 306 306 304 300 298 297 297 295 292 292 292 292 287 283 280 278 277 276 273 271
313 311 312 313 312 310 310 308 306 304 305 306 308 310 310 309 308 308 305 303 304 306 308 309 309 307 305 305 302 297 295 294 296 294 291 286 283 282 279 277 275 277 274
314 314 311 310 310 310 310 308 308 308 307 310 313 315 316 313 312 311 310 309 310 311 309 309 307 307 307 306 305 300 299 299 299 296 292 289 287 283 282 281 278 276 275
313 313 311 311 308 308 308 306 308 310 311 314 317 319 320 318 317 316 315 315 315 313 311 311 307 306 307 306 306 302 300 300 300 297 296 292 286 284 285 283 280 276 274
309 310 312 313 310 308 306 306 308 310 312 316 320 321 322 322 321 320 319 319 317 315 315 313 313 309 308 310 309 308 305 307 305 302 299 294 288 284 283 283 280 278 277
305 307 310 309 309 308 306 307 309 311 313 319 322 323 324 325 327 325 324 323 321 321 318 317 314 309 309 309 307 310 308 307 306 304 302 295 287 283 282 282 279 276 275
301 304 305 306 306 306 306 307 311 314 318 321 322 323 326 330 332 331 330 332 330 327 325 323 320 314 312 314 314 313 311 311 311 306 300 297 289 286 280 281 281 279 277
301 304 307 309 308 307 305 306 310 312 315 318 321 323 326 330 332 335 336 336 335 333 332 332 332 333 328 324 323 321 316 313 310 309 306 301 296 294 288 286 284 282 281
300 303 307 310 312 311 309 309 312 313 314 316 320 323 324 327 330 334 336 335 335 336 337 338 338 339 338 334 330 328 321 316 313 313 315 311 305 302 298 291 286 282 278
302 302 304 309 312 312 311 313 316 317 317 318 320 323 325 327 329 332 333 335 336 340 341 341 339 340 343 344 341 336 333 329 325 322 319 318 314 310 307 304 297 287 281
305 302 304 309 314 314 313 312 315 318 321 324 325 327 329 329 330 333 335 336 336 338 339 339 340 342 342 341 342 342 343 342 335 328 324 321 318 317 315 312 311 300 291
304 303 304 307 313 318 317 316 319 320 322 326 330 333 335 336 336 337 337 340 341 340 340 341 343 345 346 346 347 347 348 347 339 333 331 327 325 321 318 312 311 305 299
305 309 315 316 319 320 321 323 323 324 326 327 330 335 340 343 345 346 346 349 350 350 348 346 348 349 349 351 351 350 348 346 344 341 339 334 329 324 317 311 309 307 300
312 312 313 321 325 322 323 323 323 326 330 335 338 342 342 346 348 352 355 356 357 356 355 351 349 351 353 353 352 350 348 346 341 341 342 340 335 328 321 316 313 310 304
311 313 310 312 317 317 319 324 327 330 331 337 345 349 349 350 351 355 357 357 356 355 355 354 353 353 352 349 348 348 347 343 340 336 335 334 332 329 326 323 319 315 310
300 306 314 317 320 327 334 334 337 341 342 344 350 352 353 351 351 353 354 355 356 356 354 354 353 351 350 349 348 346 343 341 339 337 331 327 326 324 322 320 317 315 312
Height
5862 5860 5858 5857 5855 5854 5852 5851 5849 5846 5844 5842 5839 5837 5834 5831 5829 5826 5823 5820 5818 5815 5812 5810 5807 5805 5802 5800 5798 5796 5794 5792 5790 5789 5787 5786 5784 5784 5783 5783 5783 5784 5784
5857 5856 5854 5853 5851 5849 5847 5845 5843 5841 5838 5835 5833 5831 5828 5825 5822 5819 5816 5813 5810 5807 5804 5802 5799 5797 5794 5792 5790 5787 5785 5783 5781 5780 5779 5778 5777 5775 5775 5775 5775 5775 5776
5853 5852 5850 5848 5847 5844 5842 5839 5837 5834 5832 5829 5827 5825 5822 5819 5816 5813 5809 5806 5803 5800 5797 5794 5791 5789 5786 5783 5781 5779 5777 5775 5773 5771 5770 5769 5768 5767 5767 5767 5767 5767 5768
5849 5847 5845 5843 5840 5837 5835 5833 5831 5829 5826 5824 5822 5819 5816 5813 5810 5806 5803 5799 5796 5793 5790 5787 5784 5781 5778 5775 5773 5771 5769 5766 5764 5763 5761 5760 5760 5760 5760 5759 5759 5759 5759
5844 5842 5840 5837 5835 5832 5830 5828 5825 5823 5821 5818 5816 5813 5810 5807 5803 5799 5796 5792 5789 5786 5783 5780 5776 5773 5771 5768 5766 5763 5761 5759 5757 5755 5754 5753 5752 5752 5752 5752 5751 5751 5752
5839 5837 5835 5831 5829 5827 5824 5821 5819 5816 5814 5812 5810 5807 5804 5800 5797 5793 5789 5786 5783 5780 5776 5773 5770 5767 5764 5761 5759 5756 5754 5752 5750 5748 5747 5746 5745 5745 5745 5745 5744 5744 5744
5833 5831 5829 5826 5823 5820 5817 5814 5811 5809 5807 5805 5803 5800 5797 5793 5790 5786 5783 5780 5777 5773 5770 5767 5764 5760 5758 5755 5752 5750 5748 5746 5744 5742 5740 5739 5738 5738 5738 5738 5738 5738 5738
5827 5825 5823 5820 5817 5814 5811 5807 5805 5803 5800 5798 5796 5793 5790 5787 5783 5780 5777 5774 5770 5767 5764 5760 5757 5754 5751 5749 5746 5744 5742 5740 5738 5736 5735 5734 5733 5732 5732 5732 5732 5732 5732
5822 5819 5816 5814 5811 5807 5805 5802 5799 5797 5794 5791 5789 5786 5783 5780 5777 5773 5770 5767 5763 5760 5757 5754 5751 5748 5745 5743 5741 5739 5737 5735 5733 5731 5730 5728 5727 5727 5726 5726 5726 5726 5726
5817 5814 5811 5808 5805 5802 5799 5796 5794 5791 5788 5786 5783 5780 5776 5773 5769 5766 5763 5760 5758 5754 5751 5748 5746 5743 5740 5737 5735 5733 5731 5730 5728 5727 5725 5724 5723 5722 5721 5721 5720 5720 5720
5812 5809 5806 5803 5801 5797 5794 5792 5789 5786 5783 5781 5778 5774 5770 5766 5763 5760 5757 5754 5752 5749 5746 5743 5741 5738 5735 5732 5730 5728 5726 5725 5723 5722 5721 5720 5719 5718 5717 5716 5716 5715 5715
5807 5804 5801 5799 5796 5793 5790 5787 5784 5781 5779 5776 5772 5768 5764 5761 5758 5755 5752 5749 5746 5744 5741 5739 5736 5733 5730 5728 5725 5723 5722 5720 5719 5718 5717 5716 5715 5714 5713 5712 5712 5711 5710
5802 5799 5796 5794 5791 5788 5786 5783 5780 5777 5774 5771 5767 5763 5760 5757 5754 5751 5748 5745 5742 5740 5737 5734 5732 5729 5726 5724 5722 5720 5718 5717 5715 5714 5713 5712 5711 5710 5709 5709 5708 5707 5706
5798 5795 5792 5789 5787 5784 5781 5779 5776 5773 5770 5767 5763 5760 5757 5753 5751 5748 5745 5742 5739 5736 5734 5731 5728 5726 5723 5721 5719 5717 5715 5713 5712 5710 5709 5708 5707 5707 5706 5705 5704 5703 5703
5793 5791 5788 5785 5783 5780 5777 5775 5772 5770 5766 5763 5760 5757 5754 5751 5748 5745 5742 5739 5736 5733 5730 5728 5725 5723 5720 5718 5716 5714 5712 5711 5709 5707 5706 5705 5704 5703 5703 5702 5701 5700 5699
5789 5787 5784 5781 5779 5776 5774 5771 5769 5766 5763 5760 5757 5754 5752 5749 5746 5743 5740 5737 5734 5731 5728 5725 5723 5720 5718 5715 5713 5712 5710 5708 5706 5705 5703 5702 5701 5700 5699 5699 5698 5697 5697
5784 5783 5780 5777 5775 5772 5770 5768 5765 5763 5760 5758 5755 5752 5750 5747 5744 5741 5738 5735 5732 5729 5726 5723 5721 5718 5716 5714 5711 5709 5707 5705 5704 5702 5700 5699 5698 5697 5696 5695 5695 5694 5693
5779 5778 5776 5773 5771 5768 5766 5764 5762 5760 5758 5755 5753 5750 5748 5746 5743 5740 5737 5734 5731 5728 5725 5722 5719 5717 5714 5712 5709 5707 5704 5703 5701 5699 5698 5697 5695 5694 5693 5693 5692 5691 5690
5774 5773 5771 5769 5767 5765 5763 5761 5759 5757 5755 5753 5751 5748 5746 5744 5741 5738 5735 5733 5730 5727 5724 5721 5718 5715 5713 5710 5707 5705 5702 5700 5699 5697 5696 5695 5693 5692 5691 5690 5689 5688 5687
5770 5768 5767 5765 5763 5762 5760 5758 5757 5755 5752 5750 5748 5746 5744 5742 5739 5737 5734 5731 5728 5726 5723 5720 5717 5714 5711 5708 5706 5703 5701 5699 5697 5696 5694 5693 5691 5690 5689 5687 5686 5685 5685
5766 5764 5763 5762 5760 5759 5757 5756 5754 5752 5750 5748 5746 5744 5742 5740 5738 5735 5733 5730 5727 5725 5722 5719 5716 5713 5711 5708 5705 5702 5700 5698 5696 5694 5693 5691 5690 5688 5687 5686 5685 5683 5683
5762 5761 5760 5758 5757 5756 5755 5753 5751 5750 5748 5746 5745 5743 5741 5739 5736 5734 5731 5729 5726 5723 5721 5718 5715 5712 5710 5707 5704 5702 5699 5697 5695 5693 5691 5690 5688 5687 5685 5684 5683 5681 5680
5759 5758 5757 5755 5755 5753 5752 5751 5749 5748 5746 5745 5743 5741 5740 5738 5735 5733 5730 5728 5725 5722 5720 5717 5715 5712 5709 5707 5704 5701 5699 5696 5694 5692 5690 5688 5687 5685 5684 5682 5681 5679 5678
5757 5755 5754 5753 5752 5751 5750 5749 5747 5746 5744 5743 5742 5740 5739 5737 5735 5732 5730 5727 5725 5722 5719 5717 5714 5712 5709 5706 5704 5701 5698 5696 5693 5691 5689 5687 5685 5683 5682 5680 5678 5677 5675
5754 5753 5752 5751 5750 5749 5748 5747 5746 5744 5743 5742 5741 5739 5738 5736 5734 5732 5729 5727 5724 5721 5719 5716 5714 5711 5708 5706 5703 5700 5697 5695 5693 5690 5688 5686 5684 5682 5680 5678 5676 5674 5673
5751 5751 5750 5750 5748 5747 5746 5745 5744 5743 5742 5741 5740 5739 5737 5735 5733 5731 5729 5726 5724 5721 5718 5715 5713 5710 5707 5704 5702 5699 5696 5693 5691 5689 5686 5684 5682 5680 5678 5676 5674 5672 5670